Ouarzazate, Morocco

5:22 PM WEST on August 31, 2016 (GMT +0100)
Ouarzazate

Weather History for GMMZ - January, 2013

Change the Weather History Date:

Tuesday, January 8, 2013

  Actual Average Record
Temperature  
Mean Temperature 46 °F -  
Max Temperature 64 °F 63 °F - ()
Min Temperature 28 °F 36 °F - ()
Degree Days  
Heating Degree Days 19    
Moisture  
Dew Point 5 °F    
Average Humidity 18    
Maximum Humidity 32    
Minimum Humidity 4    
Precipitation  
Precipitation 0.00 in 0.02 in - ()
Sea Level Pressure  
Sea Level Pressure 30.40 in    
Wind  
Wind Speed 1 mph ()    
Max Wind Speed 6 mph    
Max Gust Speed -    
Visibility 12.0 miles    
Events      
T = Trace of Precipitation, MM = Missing Value Source: Averaged Metar Reports

Daily Weather History Graph

Daily Weather History Graph

Search for Another Location

Airport or City:

Trip Planner

Search our weather history database for the weather conditions in past years. The results will help you decide how hot, cold, wet, or windy it might be!

Date:

Astronomy

Jan. 08, 2013 Rise Set
Actual Time 7:26 AM WET 5:42 PM WET
Civil Twilight 7:00 AM WET 6:08 PM WET
Nautical Twilight 6:30 AM WET 6:38 PM WET
Astronomical Twilight 6:01 AM WET 7:07 PM WET
Moon 3:45 AM WET (1/8) 2:31 PM WET (1/8)
Length of Visible Light 11h 08m
Length of Day
10h 15m
Waning Crescent, 15% of the Moon is Illuminated
Jan 8
Waning Crescent
Jan 11
New
Jan 18
First Quarter
Jan 27
Full
Feb 3
Last Quarter

Hourly Weather History & Observations

Time (WET) Temp. Windchill Dew Point Humidity Pressure Visibility Wind Dir Wind Speed Gust Speed Precip Events Conditions
12:00 AM 39 °F - 6 °F 14%  in 12 mi Calm Calm - -  
12:00 AM 39.2 °F - 5.0 °F 24% 30.39 in - Calm Calm - N/A   Clear
1:00 AM 37.4 °F 34.9 °F 5.0 °F 26% 30.39 in - Variable 3.5 mph - N/A   Clear
2:00 AM 39.2 °F 37.0 °F 5.0 °F 24% 30.39 in - Variable 3.5 mph - N/A   Clear
3:00 AM 34 °F - 5 °F 16%  in 12 mi WNW 2.3 mph - -  
4:00 AM 33.8 °F - 3.2 °F 28% 30.39 in - Variable 1.2 mph - N/A   Clear
5:00 AM 32.0 °F - 5.0 °F 32% 30.39 in - Calm Calm - N/A   Clear
6:00 AM 30 °F - 3 °F 18%  in 12 mi WNW 1.2 mph - -  
6:00 AM 30.2 °F - 3.2 °F 32% 30.39 in - Variable 1.2 mph - N/A   Clear
7:00 AM 30.2 °F - 3.2 °F 32% 30.42 in - Variable 1.2 mph - N/A   Clear
8:00 AM 28.4 °F - 1.4 °F 31% 30.45 in - Calm Calm - N/A   Clear
9:00 AM 30 °F - 3 °F 18%  in 12 mi NW 1.2 mph - -  
9:00 AM 30.2 °F - 3.2 °F 32% 30.45 in - Variable 1.2 mph - N/A   Clear
10:00 AM 41.0 °F - 8.6 °F 26% 30.48 in - Calm Calm - N/A   Clear
11:00 AM 46.4 °F - 8.6 °F 22% 30.48 in - Calm Calm - N/A   Clear
12:00 PM 51 °F - 10 °F 9%  in 12 mi Calm Calm - -  
12:00 PM 51.8 °F - 10.4 °F 19% 30.45 in - Calm Calm - N/A   Clear
1:00 PM 57.2 °F - 8.6 °F 14% 30.42 in - Calm Calm - N/A   Clear
2:00 PM 60.8 °F - 8.6 °F 13% 30.39 in - Calm Calm - N/A   Clear
3:00 PM 62 °F - 9 °F 5%  in 12 mi ESE 2.3 mph - -  
4:00 PM 64.4 °F - 6.8 °F 10% 30.36 in - Calm Calm - N/A   Clear
5:00 PM 64.4 °F - 6.8 °F 10% 30.33 in - Calm Calm - N/A   Clear
6:00 PM 61 °F - 4 °F 4%  in 12 mi Calm Calm - -  
6:00 PM 59.0 °F - 3.2 °F 11% 30.33 in - Calm Calm - N/A   Clear
7:00 PM 57.2 °F - 3.2 °F 11% 30.36 in - Variable 1.2 mph - N/A   Clear
8:00 PM 53.6 °F - 5.0 °F 14% 30.36 in - Calm Calm - N/A   Clear
9:00 PM 44 °F - -1 °F 6%  in 12 mi West 2.3 mph - -  
9:00 PM 42.8 °F - -0.4 °F 16% 30.39 in - Variable 2.3 mph - N/A   Clear
10:00 PM 44.6 °F 41.4 °F -0.4 °F 15% 30.39 in - West 5.8 mph - N/A   Clear
11:00 PM 39.2 °F - -0.4 °F 19% 30.42 in - Variable 2.3 mph - N/A   Clear